Regional Weather Roundup
Issued by NWS

Home | Current Version | Previous Version | Graphics & Text | Print | Product List | Glossary On
Versions: 1 2 3 4 5 6 7 8 9 10 11 12 13 14 15 16 17 18 19 20 21 22 23 24 25 26 27 28 29 30 31 32 33 34 35 36 37 38 39 40 41 42 43 44 45 46 47 48 49 50
804
ASUS45 KBOU 210307
RWRCO

WEATHER ROUNDUP FOR COLORADO
NATIONAL WEATHER SERVICE DENVER/BOULDER CO
900 PM MDT SUN AUG 20 2017

NOTE: "FAIR" INDICATES FEW OR NO CLOUDS BELOW 12000 FEET WITH NO
SIGNIFICANT WEATHER AND/OR OBSTRUCTIONS TO VISIBILITY.

COZ001>005-013-030-031-210400-
...NORTHWEST COLORADO...

CITY           SKY/WX    TMP DP  RH WIND       PRES   REMARKS
CRAIG          FAIR      62  45  53 VRB3      30.16R
HAYDEN         FAIR      68  37  32 SE8       30.20R
MEEKER         FAIR      68  39  34 CALM      30.17R
RABBIT EARS PA FAIR      54  32  43 N3        30.51R
STEAMBOAT SPGS FAIR      67  40  37 SE8       30.21R
WALDEN         FAIR      63  32  31 SE5       30.33F
$$

COZ006>008-011-210400-
...WEST CENTRAL VALLEYS...

CITY           SKY/WX    TMP DP  RH WIND       PRES   REMARKS
GRAND JUNCTION FAIR      84  31  14 N10       29.99R
MONTROSE       FAIR      76  39  26 SE10      30.12R
EAGLE          FAIR      74  37  26 N6        30.19R
RIFLE          FAIR      79  32  18 W7        30.08R
DELTA          FAIR      81  38  21 CALM      30.05R
NUCLA          FAIR      73  36  25 NW5       30.18R
$$

COZ017>023-064>068-210400-
...SOUTHWEST COLORADO...

CITY           SKY/WX    TMP DP  RH WIND       PRES   REMARKS
DURANGO        FAIR      66  44  45 E3        30.25R
CORTEZ         FAIR      73  44  35 S18       30.15R
PAGOSA SPRINGS FAIR      61  40  45 CALM      30.32R
TELLURIDE      FAIR      61  38  42 CALM      30.41R
WOLF CREEK PAS MOCLDY    45  36  70 SW5       30.65R
$$

COZ009-010-012-014-032>034-037-058>063-210400-
...CENTRAL COLORADO...

CITY           SKY/WX    TMP DP  RH WIND       PRES   REMARKS
ASPEN          FAIR      69  35  28 S8        30.26R
BUENA VISTA    FAIR      62  40  45 CALM      30.35R
COPPER MTN     FAIR      54  36  50 S15       30.62S
BERTHOUD PASS  FAIR      43  37  81 S10       30.66R
COTTONWOOD PAS FAIR      61  36  39 E3        30.49R
GUNNISON       FAIR      68  39  34 E13G18    30.28R
KREMMLING      FAIR      73  34  23 W7        30.28R
LEADVILLE      MOCLDY    55  35  47 SE6       30.46R
MONARCH PASS   CLOUDY    46  36  66 NE9       30.73R
SALIDA         FAIR      67  41  38 SE7       30.38R
SUNLIGHT       FAIR      55  25  30 NW6       30.54R
WILKERSON PASS MOCLDY    50  34  53 E10G16    30.62R
$$

COZ069>075-210400-
...SAN LUIS VALLEY/SANGRE DE CRISTO MOUNTAINS...

CITY           SKY/WX    TMP DP  RH WIND       PRES   REMARKS
ALAMOSA        MOCLDY    63  44  50 S9        30.28R
DEL NORTE      MOCLDY    67  37  33 W6        30.31R
LA VETA PASS   NOT AVBL
SAGUACHE       FAIR      64  41  42 E9        30.33R
$$

COZ035-036-038>040-210400-
...NORTHERN COLORADO FRONT RANGE...

CITY           SKY/WX    TMP DP  RH WIND       PRES   REMARKS
DENVER INTL AP MOCLDY    78  40  25 NW8       30.12R
DMNS CITY PARK   N/A     74  40  29 NW3       30.12R
AURORA         MOCLDY    74  41  30 SW6       30.15R
FRONT RANGE AP FAIR      79  43  27 E6        30.14R
ERIE MUNI ARPT FAIR      74  40  29 SW5       30.15S
BOULDER MUN AP FAIR      77  41  27 W7        30.11S
CENTENNIAL     MOCLDY    76  38  25 SW10      30.16R
BROOMFIELD     MOCLDY    73  41  31 W9        30.14R
FORT COLLINS   FAIR      72  56  57 W3        30.10R
LONGMONT       FAIR      73  45  37 NW3       30.12R
$$

COZ041-046-047-076>085-087-088-210400-
...PIKES PEAK/PALMER DIVIDE AND SOUTHERN FOOTHILLS...

CITY           SKY/WX    TMP DP  RH WIND       PRES   REMARKS
COLO. SPRINGS  MOCLDY    72  43  35 W16G22    30.20R
A. F. ACADEMY  FAIR      64  46  52 CALM      30.23R
SCHRIEVER AFB  CLOUDY    70  40  33 W23G35    30.21R
CHEYENNE MTN   SHOWER    64  44  47 SW20G25   30.22F
ELLICOTT       NOT AVBL
FALCON         FAIR      67  40  37 W9G17     30.26R
FORT CARSON    FAIR      66  48  52 W7        30.20S
LIMON          FAIR      67  56  67 CALM      30.12R
MONUMENT HILL  FAIR      63  41  45 SW9       30.27R
CANON CITY     MOCLDY    75  46  35 N21G32    30.17R
WALSENBURG     FAIR      72  45  37 N16       30.19R
TRINIDAD       FAIR      68  46  45 NW10      30.13R
$$

COZ042>045-048>051-090-091-210400-
...NORTHEAST COLORADO...

CITY           SKY/WX    TMP DP  RH WIND       PRES   REMARKS
GREELEY ARPT   FAIR      71  61  70 N5        30.07R
AKRON          FAIR      74  62  66 E8        30.07R
BURLINGTON     FAIR      76  62  62 SE10      30.03R
WRAY           NOT AVBL
YUMA           FAIR      70  57  64 E5        30.04R
STERLING       FAIR      77  64  65 E7        30.02R
HOLYOKE        FAIR      73  68  83 NE8       30.02R
FORT MORGAN    FAIR      71  57  61 NE7       30.06R
$$

COZ086-089-092>099-210400-
...SOUTHEAST COLORADO...

CITY           SKY/WX    TMP DP  RH WIND       PRES   REMARKS
PUEBLO         FAIR      75  49  39 N23G35    30.06R
LA JUNTA       FAIR      73  58  59 N7        30.00R
LAMAR          FAIR      78  60  53 S13       29.95R
SPRINGFIELD      N/A     74  61  63 S13       30.05R
$$




USA.gov is the U.S. government's official web portal to all federal, state and local government web resources and services.